This demonstration page uses our WeatherBlox Daily Observations layout. Learn more.

Left ArrowRight Arrow

39.92423, -83.80882

Hourly Observations for May 11, 2020

Temp ( °F °C ) Dew Point ( °F °C ) Humidity (%) Winds ( mph kmh ) Pressure ( in mb ) Visibility ( mi km ) Precip ( " mm )
12:56 am 00:56 Cloudy 43 6.1 38 3.3 82 82 W 18 30 30.01 1016 10 16.0934 0 0
1:37 am 01:37 Cloudy 39 4 36 2 87 87 WNW 16 26 30.06 1018 10 16.0934 0.94 23.876
1:48 am 01:48 Cloudy 39 4 36 2 87 87 WNW 24 39 30.06 1018 10 16.0934 1.06 26.924
1:56 am 01:56 Cloudy 39 3.9 35 1.7 86 86 WNW 17 28 30.04 1017 10 16.0934 1.06 26.924
2:37 am 02:37 Cloudy 37 3 36 2 93 93 WNW 17 28 30.07 1018 9 14.48406 0 0
2:56 am 02:56 Cloudy 38 3.3 35 1.7 89 89 WNW 22 35 30.04 1017 10 16.0934 0 0
3:56 am 03:56 Cloudy 37 2.8 35 1.7 93 93 WNW 20 31 30.06 1018 10 16.0934 0.001 0.001
4:56 am 04:56 Cloudy 37 2.8 33 0.6 86 86 NW 20 31 30.09 1019 10 16.0934 0 0
5:56 am 05:56 Cloudy 37 2.8 31 -0.6 79 79 WNW 17 28 30.11 1020 10 16.0934 0 0
6:11 am 06:11 Cloudy 37 3 30 -1 75 75 NW 15 24 30.13 1020 10 16.0934 0 0
6:56 am 06:56 Mostly Cloudy 37 2.8 30 -1.1 76 76 WNW 13 20 30.13 1020 10 16.0934 0 0
7:56 am 07:56 Cloudy 37 2.8 33 0.6 86 86 W 13 20 30.16 1021 10 16.0934 0 0
8:56 am 08:56 Cloudy 38 3.3 34 1.1 86 86 WNW 13 20 30.17 1022 10 16.0934 0 0
9:56 am 09:56 Cloudy 39 3.9 32 0 76 76 WNW 13 20 30.18 1022 10 16.0934 0 0
10:16 am 10:16 Cloudy 39 4 34 1 81 81 W 15 24 30.2 1023 10 16.0934 0 0
10:56 am 10:56 Cloudy 42 5.6 33 0.6 71 71 WNW 17 28 30.18 1022 10 16.0934 0 0
11:12 am 11:12 Cloudy 41 5 32 0 70 70 WNW 14 22 30.19 1022 10 16.0934 0 0
11:56 am 11:56 Cloudy 42 5.6 34 1.1 73 73 W 12 19 30.19 1022 10 16.0934 0.001 0.001
12:56 pm 12:56 Cloudy 43 6.1 36 2.2 76 76 WSW 15 24 30.19 1022 10 16.0934 0 0
1:52 pm 13:52 Cloudy 39 4 36 2 87 87 WNW 10 17 30.21 1023 10 16.0934 0.001 0.001
1:56 pm 13:56 Cloudy 41 5 37 2.8 86 86 W 10 17 30.19 1022 10 16.0934 0.001 0.001
2:56 pm 14:56 Cloudy 43 6.1 35 1.7 74 74 WNW 15 24 30.19 1023 10 16.0934 0 0
3:56 pm 15:56 Cloudy 45 7.2 34 1.1 66 66 WNW 17 28 30.19 1022 10 16.0934 0 0
4:56 pm 16:56 Cloudy 44 6.7 35 1.7 71 71 W 12 19 30.19 1022 10 16.0934 0 0
5:56 pm 17:56 Cloudy 44 6.7 34 1.1 68 68 WNW 12 19 30.19 1023 10 16.0934 0 0
6:56 pm 18:56 Cloudy 45 7.2 35 1.7 68 68 W 9 15 30.2 1023 10 16.0934 0 0
7:56 pm 19:56 Cloudy 44 6.7 35 1.7 71 71 W 15 24 30.2 1023 10 16.0934 0 0
8:56 pm 20:56 Cloudy 43 6.1 36 2.2 76 76 W 9 15 30.2 1023 10 16.0934 0 0
9:56 pm 21:56 Cloudy 42 5.6 36 2.2 79 79 W 9 15 30.21 1023 10 16.0934 0 0
10:56 pm 22:56 Cloudy 42 5.6 37 2.8 82 82 W 7 11 30.22 1023 10 16.0934 0.02 0.508
11:56 pm 23:56 Cloudy 42 5.6 37 2.8 82 82 WNW 6 9 30.22 1023 10 16.0934 0 0

Powered by AerisWeather